Find Starlink 30313

NORAD ID: 57676 Int'l Des: 2023-124 Owner: SPXS Country: US Constellation: starlink operational
LEOCIRCULAR

Live Position

Loading 3D Globe...

About Starlink 30313

Description loading...

Upcoming Passes

Passes for default location (London). Set your location on the main map for personalized predictions.

Altitude History

Loading altitude history...

Two-Line Element Set

1 57676U 23124P 26125.75892461 .00001271 00000-0 55037-4 0 9996
2 57676 53.1617 301.9001 0001276 88.1551 271.9596 15.30194312152303
Epoch: May 5, 2026 • Age: 18 hours

Current Status

Altitude 480.4 km
Velocity 7.63 km/s
Sub-Earth Point 50.98°N, 35.8°W
Launch Date Aug 22, 2023
Age 2.7 years
Type internet

Technical Details

Classification Payload
Mass 730.00 kg
Dry Mass 700.00 kg
Total Mass 730.00 kg
Length 0.30 m
Diameter 4.10 m
Span 29.00 m
Shape Box + pan
Manufacturer SPXS
Bus Type Starlink V2M
Phase Status In Orbit
Owner/State SPXS/US

Most Searched